Regional Weather Roundup
Issued by NWS New Orleans/Baton Rouge, LA

Home | Current Version | Previous Version | Graphics & Text | Print | Product List | Glossary On
Versions: 1 2 3 4 5 6 7 8 9 10 11 12 13 14 15 16 17 18 19 20 21 22 23 24 25 26 27 28 29 30 31 32 33 34 35 36 37 38 39 40 41 42 43 44 45 46 47 48 49 50
230
ASUS44 KLIX 281310
RWRLIX
NEW ORLEANS REGIONAL WEATHER ROUNDUP
NATIONAL WEATHER SERVICE NEW ORLEANS LA
800 AM CDT THU AUG 28 2014

NOTE: "FAIR" INDICATES FEW OR NO CLOUDS BELOW 12,000 FEET WITH NO
      SIGNIFICANT WEATHER AND/OR OBSTRUCTIONS TO VISIBILITY.
      SKY/WX - SKY CONDITION AND SIGNIFICANT WEATHER.
      TMP - AIR TEMPERATURE.     DP    - DEWPOINT TEMPERATURE.
      RH  - RELATIVE HUMIDITY.   PRES  - PRESSURE.
      HI  - HEAT INDEX.          WCI   - WIND CHILL INDEX.

*  THESE STATIONS ARE NOT NWS OR FAA STATIONS AND ARE NOT UNDER
   NWS QUALITY CONTROL.

LAZ038-040-048-061>063-065>067-069-281400-
SOUTHEAST LOUISIANA

CITY           SKY/WX    TMP DP  RH WIND       PRES   REMARKS
N.O. AUDUBON   NOT AVBL
N.O. INTL ARPT PTSUNNY   82  75  79 E3        29.98R
N.O. LAKEFRONT CLOUDY    82  78  88 E7        29.99R
N.O. DOWNTOWN*   N/A     82  73  74 CALM      29.99S
SLIDELL        CLOUDY    78  74  87 NE5       29.99R
BATON ROUGE    PTSUNNY   77  74  90 NE5       29.98S
BOOTHVILLE     PTSUNNY   84  77  79 E3        29.98R
BELLE CHASSE   CLOUDY    80  76  87 CALM      29.98R
BOGALUSA*      PTSUNNY   76  72  87 CALM      30.02S
GALLIANO*      NOT AVBL
NEW ROADS*       N/A     75  75  98 CALM      29.99R FOG
GONZALES*        N/A     76  76 100 CALM      29.98R
HAMMOND*       PTSUNNY   77  73  88 CALM      30.01S
HOUMA*         MOSUNNY   79  75  89 NE3       29.98R
PORT FOURCHON* MOSUNNY   84  75  74 E9        29.98S

$$

MSZ070-080>082-281400-
SOUTHERN MISSISSIPPI

CITY           SKY/WX    TMP DP  RH WIND       PRES   REMARKS
MCCOMB         PTSUNNY   75  72  90 CALM      30.01S
GULFPORT       CLOUDY    80  73  79 NE3       29.99R
BILOXI         PTSUNNY   79  73  81 NE5       30.00R
PASCAGOULA     PTSUNNY   78  74  87 CALM      30.01R
STENNIS ARPT*  PTSUNNY  N/A N/A N/A VRB5      30.00R

$$

COASTAL OBSERVATIONS
LAKE AND NEARSHORE STATIONS

STATION/POSITION TIME  TEMP    WIND        PRES    WAVE
                       AIR SEA DIR/SP/G            HT/PER
                 (UTC) (F)     (DEG/KT/KT) (MB)    (FT/S)
PASCAGOULA       1300   80      40/  5/  7 1015.4
WAVELAND YACHT   1300   79      60/  8/ 10 1015.1
GRAND ISLE       1300   83 83  110/  6/  9 1015.4
SOUTHWEST PASS   1300   85 88  100/ 11/ 12 1015.2
NEW CANAL        1300   82 84   CALM  /  2 1015.8
SHELL BEACH      1300   83 80   70/  7/  8 1015.2

OFFSHORE STATIONS

STATION/POSITION TIME  TEMP    WIND        PRES    WAVE
                       AIR SEA DIR/SP/G            HT/PER
                 (UTC) (F)     (DEG/KT/KT) (MB)    (FT/S)
64 S DAUPHIN ISL 1224   84 85   80/ 10/ 12 1015.4

$$




USA.gov is the U.S. government's official web portal to all federal, state and local government web resources and services.